Tracking 19846 objects as of 18-Sep-2019
HD Live streaming from Space Station
objects crossing your sky now

FENGYUN 1C DEB

Track FENGYUN 1C DEB now!
10-day predictions


NORAD ID: 35204
Int'l Code: 1999-025DPL
Perigee: 786.2 km
Apogee: 872.8 km
Inclination: 98.9 °
Period: 101.3 minutes
Semi major axis: 7200 km
RCS: 0.0049 m2 (small)
Launch date: May 10, 1999
Source: People's Republic of China (PRC)
Launch site: Taiyaun Space Center, China (TSC)

Note: This is SATELLITE DEBRIS
aabbcc
Your satellite tracking list
Your tracking list is empty




NASA's NSSDC Master Catalog

Two Line Element Set (TLE):
1 35204U 99025DPL 19261.50011753  .00000677  00000-0  32771-3 0  9993
2 35204  98.9057 359.1922 0060090  91.0102 328.7355 14.20889463585391
Source of the keplerian elements: AFSPC